Showing default

COSMOS 2531, 43752

Orbit data source: Space-Track

COSMOS 2531, 43752 is a payload satellite owned by VVKO VKS (CIS) in LEO that was launched on Fri, 30 Nov 2018 UTC via an ROKOT launch vehicle from the Plesetsk Missile And Space Complex (PKMTR). Payloads include a variety of satellites, spacecraft, and rockets equipped with specific instruments for various scientific and technological missions. These include communications satellites like Starlink; space stations such as the ISS; scientific satellites like the Hubble; Earth observation satellites from companies like Planet Labs, Umbra, and HawkEye 360; GPS; miniature CubeSats for education and research; and military/defense satellites.

Loading next visibility...
COSMOS 2531 details
Identifier
43752, 2018-097B
Orbit
LEO
Last TLE update9 hours ago
Origin
Flag of CISVVKO VKS (CIS)
ManufacturerResehetnev ISS
MissionOperational Defense Communications
Bus & MotorSTRELA-3M, Unknown motor
Mass280 kg wet, 280 kg dry
Launch date (UTC)
2018-11-30 (6 years ago)
Launch vehicle
ROKOT
Launch site
Plesetsk Missile And Space Complex (PKMTR)
Object type
Payload
Rocket body
Debris
Shape & HBRCyl + 1 Ant, 7 m
Radar Cross Section1.583 m², Large (>1 m²)

Expand to show TLE details & history

TLE from 9 hours ago
0 COSMOS 2531
1 43752U 18097B   24361.11234751  .00000043  00000-0  23556-3 0  9997
2 43752  82.5179 197.1176 0017006 145.3858 214.8332 12.42902813275543
Epoch: 2024-12-26T02:41Z
Definitive object data (Epoch: 2024-12-26T02:41:46.824Z)
Latitude-0.00006°
Longitude61.57607°
Altitude1,508.02 km
Speed7.106 km/s
True Right ascension13h 08m 28s
True Declination0° 00' 00"
Sunlit
Object was in daylight at TLE epoch
Visualization TLE readout
Latitude-64.15419°
Longitude-103.00502°
Altitude1,521.196 km
Speed7.103 km/s
Apparent Right ascension00h 20m 58s
Apparent Declination-55° 22' 40"
Sunlit
Object is in daylight
Visualization observer readout
Local Sidereal Time11:05:35
Azimuth212.677° SW
Elevation-70.127°
Doppler factor1
Orbital elements
Apogee altitude1,505.056 km
Perigee altitude1,478.289 km
Semi-major axis7,869.809 km
Eccentricity0.0017006
Inclination82.5179°
RAAN197.1176°
Arg. of periapsis145.3858°
True anomaly214.72208°
Mean anomaly214.8332°
Eccentric anomaly214.77762°
Mean motion3.10883 °/min
BSTAR0.00023556
Orbital period115.8 mins
Loading maneuver chart data...
Loading historical data...
Loading historical data...
Loading historical data...
Loading historical data...
Loading historical data...
Loading historical data...
Loading historical data...
Other satellites on launch #97 in the year 2018 (2018-11-30 UTC)

COSMOS 2531 Visibility forecast

Observer location: undefined°, undefined

Span
Click to sort rows by Start time (UTC) header in descending order
Start Az.
Max El. time (UTC)
Max El. Az.
Max El.
End time (UTC)
End Az.
12 mins2024-12-26 12:28:11.754Z128.043° SE2024-12-26 12:34:11.754Z83.448° E21.784°2024-12-26 12:40:11.754Z36.138° NE
15 mins2024-12-26 14:23:11.754Z197.559° SSW2024-12-26 14:30:11.754Z269.446° W43.329°2024-12-26 14:38:11.754Z2.566° NNE
6 mins2024-12-26 16:26:11.754Z281.372° WNW2024-12-26 16:29:11.754Z302.904° NW13.032°2024-12-26 16:32:11.754Z324.128° NNW
15 mins2024-12-27 00:34:11.754Z2.679° NNE2024-12-27 00:41:11.754Z72.855° E39.959°2024-12-27 00:49:11.754Z154.112° SSE
12 mins2024-12-27 02:32:11.754Z324.834° NNW2024-12-27 02:37:11.754Z281.858° WNW26.323°2024-12-27 02:44:11.754Z223.117° SW
|